Raleigh, IL

4:26 AM CST on February 21, 2017 (GMT -0600)
Harrisburg-Raleigh

Weather History for KHSB - December, 2012

Change the Weather History Date:

Friday, December 21, 2012

  Actual Average (KMWA) Record (KMWA)
Temperature  
Mean Temperature 32 °F -  
Max Temperature 37 °F 40 °F 63 °F (1978)
Min Temperature 28 °F 21 °F -7 °F (1989)
Degree Days  
Heating Degree Days 32    
Moisture  
Dew Point 18 °F    
Average Humidity 56    
Maximum Humidity 69    
Minimum Humidity 38    
Precipitation  
Precipitation 0.00 in - - ()
Sea Level Pressure  
Sea Level Pressure 30.14 in    
Wind  
Wind Speed 19 mph (WNW)    
Max Wind Speed 26 mph    
Max Gust Speed 36 mph    
Visibility 10 miles    
Events      
Averages and records for this station are not official NWS values.
T = Trace of Precipitation, MM = Missing Value Source: NWS Daily Summary

Daily Weather History Graph

Daily Weather History Graph

Search for Another Location

Airport or City:

Trip Planner

Search our weather history database for the weather conditions in past years. The results will help you decide how hot, cold, wet, or windy it might be!

Date:

Astronomy

Dec. 21, 2012 Rise Set
Actual Time 7:06 AM CST 4:38 PM CST
Civil Twilight 6:36 AM CST 5:08 PM CST
Nautical Twilight 6:03 AM CST 5:41 PM CST
Astronomical Twilight 5:31 AM CST 6:13 PM CST
Moon 12:21 PM CST 12:57 AM CST
Length of Visible Light 10h 31m
Length of Day
9h 32m
Waxing Gibbous, 65% of the Moon is Illuminated
Dec 21
Waxing Gibbous
Dec 28
Full
Jan 4
Last Quarter
Jan 11
New
Jan 18
First Quarter

Hourly Weather History & Observations

Time (CST) Temp. Windchill Dew Point Humidity Pressure Visibility Wind Dir Wind Speed Gust Speed Precip Events Conditions
12:15 AM 30.2 °F 16.5 °F 21.2 °F 69% 29.91 in 10.0 mi West 24.2 mph 29.9 mph N/A   Mostly Cloudy
12:35 AM 30.2 °F 16.8 °F 21.2 °F 69% 29.92 in 10.0 mi West 23.0 mph 35.7 mph N/A   Mostly Cloudy
12:55 AM 30.2 °F 17.1 °F 21.2 °F 69% 29.93 in 10.0 mi West 21.9 mph 31.1 mph N/A   Overcast
1:15 AM 30.2 °F 16.5 °F 21.2 °F 69% 29.93 in 10.0 mi West 24.2 mph 32.2 mph N/A   Mostly Cloudy
1:35 AM 30.2 °F 16.8 °F 21.2 °F 69% 29.94 in 10.0 mi West 23.0 mph 31.1 mph N/A   Scattered Clouds
1:55 AM 30.2 °F 16.8 °F 21.2 °F 69% 29.95 in 10.0 mi West 23.0 mph 29.9 mph N/A   Scattered Clouds
2:15 AM 30.2 °F 17.1 °F 21.2 °F 69% 29.96 in 10.0 mi West 21.9 mph 32.2 mph N/A   Scattered Clouds
2:35 AM 30.2 °F 17.8 °F 21.2 °F 69% 29.96 in 10.0 mi West 19.6 mph 29.9 mph N/A   Clear
2:55 AM 30.2 °F 17.4 °F 21.2 °F 69% 29.97 in 10.0 mi West 20.7 mph 29.9 mph N/A   Clear
3:15 AM 30.2 °F 16.8 °F 19.4 °F 64% 29.97 in 10.0 mi WNW 23.0 mph 28.8 mph N/A   Clear
3:35 AM 30.2 °F 18.1 °F 19.4 °F 64% 29.98 in 10.0 mi West 18.4 mph 28.8 mph N/A   Clear
3:55 AM 30.2 °F 16.5 °F 19.4 °F 64% 29.98 in 10.0 mi West 24.2 mph 29.9 mph N/A   Clear
4:15 AM 30.2 °F 17.4 °F 19.4 °F 64% 29.98 in 10.0 mi WNW 20.7 mph 27.6 mph N/A   Clear
4:35 AM 30.2 °F 18.5 °F 19.4 °F 64% 29.99 in 10.0 mi West 17.3 mph 31.1 mph N/A   Clear
4:55 AM 30.2 °F 18.1 °F 19.4 °F 64% 30.00 in 10.0 mi WNW 18.4 mph 29.9 mph N/A   Clear
5:15 AM 30.2 °F 18.9 °F 19.4 °F 64% 30.00 in 10.0 mi WNW 16.1 mph 24.2 mph N/A   Clear
5:35 AM 30.2 °F 17.4 °F 19.4 °F 64% 30.01 in 10.0 mi West 20.7 mph 26.5 mph N/A   Clear
5:55 AM 30.2 °F 18.5 °F 19.4 °F 64% 30.02 in 10.0 mi WNW 17.3 mph 28.8 mph N/A   Clear
6:15 AM 28.4 °F 16.2 °F 19.4 °F 69% 30.03 in 10.0 mi West 17.3 mph 26.5 mph N/A   Clear
6:35 AM 28.4 °F 16.2 °F 19.4 °F 69% 30.04 in 10.0 mi WNW 17.3 mph 24.2 mph N/A   Clear
6:55 AM 28.4 °F 17.5 °F 19.4 °F 69% 30.05 in 10.0 mi West 13.8 mph 29.9 mph N/A   Clear
7:15 AM 28.4 °F 16.2 °F 19.4 °F 69% 30.06 in 10.0 mi West 17.3 mph 24.2 mph N/A   Clear
7:35 AM 28.4 °F 16.2 °F 17.6 °F 64% 30.07 in 10.0 mi West 17.3 mph 23.0 mph N/A   Clear
7:55 AM 30.2 °F 18.5 °F 17.6 °F 60% 30.08 in 10.0 mi West 17.3 mph 24.2 mph N/A   Clear
8:15 AM 30.2 °F 18.1 °F 17.6 °F 60% 30.09 in 10.0 mi West 18.4 mph 26.5 mph N/A   Clear
8:35 AM 30.2 °F 17.1 °F 17.6 °F 60% 30.10 in 10.0 mi West 21.9 mph 27.6 mph N/A   Clear
8:55 AM 32.0 °F 19.8 °F 17.6 °F 55% 30.11 in 10.0 mi WNW 20.7 mph - N/A   Clear
9:15 AM 32.0 °F 20.5 °F 17.6 °F 55% 30.13 in 10.0 mi West 18.4 mph 27.6 mph N/A   Clear
9:35 AM 32.0 °F 19.5 °F 19.4 °F 60% 30.14 in 10.0 mi West 21.9 mph 28.8 mph N/A   Clear
9:55 AM 32.0 °F 20.1 °F 19.4 °F 60% 30.15 in 10.0 mi WNW 19.6 mph 27.6 mph N/A   Clear
10:15 AM 33.8 °F 22.5 °F 19.4 °F 56% 30.15 in 10.0 mi West 19.6 mph 27.6 mph N/A   Clear
10:35 AM 33.8 °F 22.2 °F 19.4 °F 56% 30.15 in 10.0 mi WNW 20.7 mph 24.2 mph N/A   Clear
10:55 AM 33.8 °F 22.2 °F 19.4 °F 56% 30.15 in 10.0 mi West 20.7 mph 26.5 mph N/A   Clear
11:15 AM 35.6 °F 25.9 °F 19.4 °F 52% 30.15 in 10.0 mi WNW 16.1 mph 27.6 mph N/A   Clear
11:35 AM 35.6 °F 23.4 °F 19.4 °F 52% 30.15 in 10.0 mi WNW 25.3 mph 33.4 mph N/A   Clear
11:55 AM 35.6 °F 23.2 °F 17.6 °F 48% 30.16 in 10.0 mi WNW 26.5 mph 33.4 mph N/A   Clear
12:15 PM 35.6 °F 24.2 °F 17.6 °F 48% 30.17 in 10.0 mi WNW 21.9 mph 27.6 mph N/A   Clear
12:35 PM 37.4 °F 27.8 °F 17.6 °F 45% 30.17 in 10.0 mi WNW 17.3 mph 26.5 mph N/A   Clear
12:55 PM 37.4 °F 26.4 °F 17.6 °F 45% 30.16 in 10.0 mi WNW 23.0 mph 31.1 mph N/A   Clear
1:15 PM 37.4 °F 27.8 °F 17.6 °F 45% 30.17 in 10.0 mi WNW 17.3 mph 25.3 mph N/A   Clear
1:35 PM 37.4 °F 26.1 °F 15.8 °F 41% 30.18 in 10.0 mi WNW 24.2 mph 29.9 mph N/A   Clear
1:55 PM 37.4 °F 28.2 °F 17.6 °F 45% 30.17 in 10.0 mi NW 16.1 mph 27.6 mph N/A   Clear
2:15 PM 37.4 °F 28.2 °F 17.6 °F 45% 30.17 in 10.0 mi NW 16.1 mph 26.5 mph N/A   Clear
2:35 PM 37.4 °F 28.2 °F 15.8 °F 41% 30.18 in 10.0 mi WNW 16.1 mph 28.8 mph N/A   Clear
2:55 PM 37.4 °F 28.2 °F 15.8 °F 41% 30.18 in 10.0 mi NW 16.1 mph 31.1 mph N/A   Clear
3:15 PM 37.4 °F 28.2 °F 14.0 °F 38% 30.19 in 10.0 mi WNW 16.1 mph 27.6 mph N/A   Clear
3:35 PM 37.4 °F 27.5 °F 15.8 °F 41% 30.20 in 10.0 mi WNW 18.4 mph 25.3 mph N/A   Clear
3:55 PM 35.6 °F 26.6 °F 14.0 °F 41% 30.21 in 10.0 mi WNW 13.8 mph 20.7 mph N/A   Clear
4:15 PM 35.6 °F 26.2 °F 15.8 °F 44% 30.21 in 10.0 mi WNW 15.0 mph 21.9 mph N/A   Clear
4:35 PM 33.8 °F 24.8 °F 14.0 °F 44% 30.22 in 10.0 mi WNW 12.7 mph 21.9 mph N/A   Clear
4:55 PM 33.8 °F 23.5 °F 14.0 °F 44% 30.23 in 10.0 mi WNW 16.1 mph 19.6 mph N/A   Clear
5:15 PM 33.8 °F 24.8 °F 14.0 °F 44% 30.23 in 10.0 mi WNW 12.7 mph - N/A   Clear
5:35 PM 32.0 °F 22.1 °F 14.0 °F 48% 30.24 in 10.0 mi WNW 13.8 mph 20.7 mph N/A   Clear
5:55 PM 32.0 °F 22.5 °F 15.8 °F 51% 30.24 in 10.0 mi West 12.7 mph 18.4 mph N/A   Clear
6:15 PM 32.0 °F 24.2 °F 17.6 °F 55% 30.25 in 10.0 mi West 9.2 mph - N/A   Clear
6:35 PM 32.0 °F 23.6 °F 17.6 °F 55% 30.25 in 10.0 mi West 10.4 mph - N/A   Clear
6:55 PM 32.0 °F 24.8 °F 17.6 °F 55% 30.26 in 10.0 mi West 8.1 mph - N/A   Clear
7:15 PM 32.0 °F 24.2 °F 17.6 °F 55% 30.26 in 10.0 mi West 9.2 mph - N/A   Clear
7:35 PM 32.0 °F 23.6 °F 17.6 °F 55% 30.26 in 10.0 mi West 10.4 mph - N/A   Clear
7:55 PM 30.2 °F 20.8 °F 17.6 °F 60% 30.27 in 10.0 mi West 11.5 mph - N/A   Clear
8:15 PM 30.2 °F 21.3 °F 17.6 °F 60% 30.27 in 10.0 mi WNW 10.4 mph - N/A   Clear
8:35 PM 32.0 °F 22.5 °F 15.8 °F 51% 30.27 in 10.0 mi WNW 12.7 mph 17.3 mph N/A   Clear
8:55 PM 32.0 °F 23.0 °F 14.0 °F 48% 30.27 in 10.0 mi WNW 11.5 mph 16.1 mph N/A   Clear
9:15 PM 30.2 °F 21.9 °F 14.0 °F 51% 30.27 in 10.0 mi WNW 9.2 mph - N/A   Clear
9:35 PM 30.2 °F 23.4 °F 15.8 °F 55% 30.28 in 10.0 mi WNW 6.9 mph - N/A   Clear
9:55 PM 30.2 °F 22.6 °F 15.8 °F 55% 30.28 in 10.0 mi WNW 8.1 mph - N/A   Clear
10:15 PM 30.2 °F 22.6 °F 15.8 °F 55% 30.28 in 10.0 mi WNW 8.1 mph - N/A   Clear
10:35 PM 30.2 °F 23.4 °F 15.8 °F 55% 30.28 in 10.0 mi WNW 6.9 mph - N/A   Clear
10:55 PM 30.2 °F 22.6 °F 15.8 °F 55% 30.28 in 10.0 mi WNW 8.1 mph - N/A   Clear
11:15 PM 28.4 °F 21.2 °F 15.8 °F 59% 30.28 in 10.0 mi WNW 6.9 mph - N/A   Clear
11:35 PM 28.4 °F 22.2 °F 15.8 °F 59% 30.28 in 10.0 mi WNW 5.8 mph - N/A   Clear
11:55 PM 28.4 °F 22.2 °F 17.6 °F 64% 30.28 in 10.0 mi WNW 5.8 mph - N/A   Clear